Flag for United Kingdom Weather past 2 weeks in Saint Helier, Jersey, United Kingdom

Now
59 °F

Broken clouds.


Feels Like: 56 °F
Forecast: 58 / 60 °F
Wind: 14 mph from Southwest

Location: Jersey Airport

Current Time: Oct 24, 2014 at 2:44:56 PM

Latest Report: Oct 24, 2014 at 2:20 PM


Visibility: 4 mi

Pressure: 30.01 "Hg

Humidity: 100%

Dew point: 59 °F

Location of Saint HelierLocation

Historic Weather in Saint Helier — Graph

°F

Saint Helier temperature yesterday

Maximum temperature yesterday: 61 °F (at 1:50 PM)
Minimum temperature yesterday: 55 °F (at 3:50 AM)
Average temperature yesterday: 58 °F

Past Weeks' High & Low Weather Summary

 TemperatureHumidityPressure
High72 °F (Oct 18, 2:20 PM)100% (Oct 12, 1:20 PM)30.42 "Hg (Oct 12, 1:20 PM)
Low52 °F (Oct 11, 7:50 PM)56% (Oct 9, 4:20 PM)29.42 "Hg (Oct 12, 8:50 PM)
Average59 °F85%29.88 "Hg
* Reported Oct 9 1:20 PM — Oct 24 1:50 PM, Saint Helier, Weather by CustomWeather, © 2014

Note: Actual official high and low records may vary slightly from our data, if they occured in-between our weather recording intervals... More about our weather records

Advertising

Saint Helier weather history for previous 24 hours

 ConditionsComfort  
Time TempWeatherWind HumidityBarometerVisibility
1:50 PM
Oct 24
59 °FBroken clouds.12 mph94%30.01 "Hg5 mi
1:20 PM59 °FDrizzle. Broken clouds.15 mph100%30.01 "Hg1 mi
12:50 PM59 °FDrizzle. Broken clouds.16 mph100%30.01 "Hg4 mi
12:20 PM59 °FDrizzle. Broken clouds.15 mph100%30.04 "Hg3 mi
11:50 AM59 °FPartly sunny.23 mph100%30.04 "HgN/A
11:20 AM59 °FPartly sunny.20 mph100%30.04 "Hg5 mi
10:50 AM59 °FDrizzle. Partly sunny.17 mph100%30.04 "Hg2 mi
10:20 AM59 °FLight rain. Partly sunny.13 mph100%30.04 "Hg4 mi
9:50 AM61 °FLight rain. Partly sunny.16 mph100%30.04 "Hg4 mi
9:20 AM59 °FDrizzle. Broken clouds.15 mph100%30.04 "Hg2 mi
8:50 AM59 °FDrizzle. Partly sunny.13 mph100%30.04 "Hg4 mi
8:20 AM59 °FLight rain. Passing clouds.15 mph100%30.04 "Hg4 mi
7:50 AM59 °FLight rain. Passing clouds.17 mph100%30.04 "Hg4 mi
7:20 AM59 °FPartly cloudy.14 mph94%30.04 "Hg1 mi
6:50 AM59 °FPartly cloudy.12 mph94%30.04 "Hg1 mi
6:20 AM59 °FLight rain. Partly cloudy.9 mph94%30.04 "Hg3 mi
5:50 AM59 °FLight rain. Passing clouds.10 mph100%30.04 "Hg3 mi
5:20 AM59 °FPartly cloudy.8 mph100%30.04 "Hg2 mi
4:50 AM57 °FLight rain. Partly cloudy.14 mph100%30.04 "Hg5 mi
4:20 AM57 °FLight rain. Partly cloudy.16 mph100%30.07 "Hg4 mi
3:50 AM59 °FLight rain. Partly cloudy.14 mph94%30.07 "Hg4 mi
9:50 PM
Oct 23
61 °FPassing clouds.14 mph88%30.12 "HgN/A
9:20 PM61 °FPassing clouds.12 mph88%30.12 "HgN/A
8:50 PM61 °FPassing clouds.15 mph88%30.12 "HgN/A
8:20 PM59 °FPassing clouds.12 mph94%30.12 "HgN/A
7:50 PM59 °FPassing clouds.14 mph94%30.12 "HgN/A
7:20 PM59 °FPassing clouds.13 mph94%30.12 "HgN/A
6:50 PM59 °FPartly sunny.13 mph94%30.15 "HgN/A
6:20 PM59 °FPartly sunny.13 mph94%30.15 "HgN/A
5:50 PM59 °FBroken clouds.16 mph94%30.15 "HgN/A
5:20 PM61 °FPartly sunny.12 mph88%30.15 "HgN/A
4:50 PM61 °FPartly sunny.12 mph88%30.15 "HgN/A
4:20 PM61 °FBroken clouds.14 mph88%30.15 "HgN/A
3:50 PM61 °FBroken clouds.15 mph83%30.15 "HgN/A
3:20 PM61 °FPartly sunny.16 mph83%30.18 "HgN/A
2:50 PM61 °FBroken clouds.16 mph83%30.18 "HgN/A
2:20 PM59 °FPartly sunny.16 mph82%30.18 "HgN/A
Weather by CustomWeather, © 2014

See weather overviewHow to use our weather pages